Location: Iwkowa
(49.8210°N, 20.5761°E)
Time: 00:37:42
(UTC+01:00)

ISS - Pass Details

Date: 28 January 2019
Orbit: 403 x 411 km, 51.6° (Epoch: 22 February)

Event Time Altitude Azimuth Distance (km) Brightness Sun altitude
Rises 17:30:34 0° 243° (WSW) 2,327 1.9 -10.6°
Reaches altitude 10° 17:32:39 10° 241° (WSW) 1,470 0.4 -10.9°
Maximum altitude 17:35:55 68° 158° (SSE) 444 -3.7 -11.5°
Enters shadow 17:38:04 20° 78° (ENE) 1,019 -2.5 -11.8°
